| time (UTC) | temp F | wind direction | speed knots | gust knots | rain 1hr in | rain 24hr in | rain mn in | humidity % | barometer mb |
| 20260504202539 | 86 | 91 | 2.6 | 8.7 | 0.00 | 0.00 | 0.00 | 62 | 1011.3 |
| 20260504202042 | 88 | 102 | 1.7 | 13.0 | 0.00 | 0.00 | 0.00 | 60 | 1011.1 |
| 20260504201538 | 89 | 96 | 4.3 | 13.0 | 0.00 | 0.00 | 0.00 | 59 | 1011.2 |
| 20260504201037 | 89 | 88 | 0.0 | 7.0 | 0.00 | 0.00 | 0.00 | 59 | 1011.2 |
| 20260504200539 | 88 | 88 | 0.9 | 7.8 | 0.00 | 0.00 | 0.00 | 60 | 1011.3 |
| 20260504200042 | 88 | 97 | 0.9 | 7.8 | 0.00 | 0.00 | 0.00 | 61 | 1011.4 |
| 20260504195535 | 87 | 96 | 1.7 | 6.1 | 0.00 | 0.00 | 0.00 | 62 | 1011.4 |
| 20260504195035 | 86 | 85 | 0.9 | 6.1 | 0.00 | 0.00 | 0.00 | 63 | 1011.5 |
| 20260504194540 | 86 | 84 | 0.9 | 6.1 | 0.00 | 0.00 | 0.00 | 63 | 1011.5 |
| 20260504194035 | 86 | 96 | 0.9 | 6.1 | 0.00 | 0.00 | 0.00 | 62 | 1011.6 |
| 20260504193535 | 87 | 101 | 0.0 | 3.5 | 0.00 | 0.00 | 0.00 | 60 | 1011.6 |
| 20260504193036 | 88 | 101 | 0.9 | 3.5 | 0.00 | 0.00 | 0.00 | 59 | 1011.7 |
| 20260504192534 | 89 | 100 | 0.9 | 5.2 | 0.00 | 0.00 | 0.00 | 58 | 1011.7 |
| 20260504192033 | 89 | 99 | 0.9 | 5.2 | 0.00 | 0.00 | 0.00 | 61 | 1011.7 |
| 20260504191533 | 88 | 98 | 0.0 | 2.6 | 0.00 | 0.00 | 0.00 | 61 | 1011.8 |
| 20260504191033 | 88 | 120 | 0.0 | 3.5 | 0.00 | 0.00 | 0.00 | 62 | 1012.0 |
| 20260504190531 | 88 | 119 | 0.0 | 7.8 | 0.00 | 0.00 | 0.00 | 62 | 1012.2 |
| 20260504190036 | 87 | 109 | 1.7 | 7.0 | 0.00 | 0.00 | 0.00 | 60 | 1012.2 |
| 20260504185530 | 88 | 90 | 1.7 | 7.0 | 0.00 | 0.00 | 0.00 | 60 | 1012.3 |
| 20260504185028 | 88 | 92 | 1.7 | 5.2 | 0.00 | 0.00 | 0.00 | 60 | 1012.3 |
| 20260504184534 | 87 | 126 | 0.0 | 4.3 | 0.00 | 0.00 | 0.00 | 63 | 1012.4 |
| 20260504184028 | 87 | 118 | 0.0 | 7.8 | 0.00 | 0.00 | 0.00 | 63 | 1012.5 |
| 20260504183528 | 87 | 119 | 2.6 | 7.8 | 0.00 | 0.00 | 0.00 | 62 | 1012.5 |
| 20260504183029 | 88 | 88 | 0.9 | 6.1 | 0.00 | 0.00 | 0.00 | 63 | 1012.5 |
| 20260504182526 | 87 | 88 | 1.7 | 6.1 | 0.00 | 0.00 | 0.00 | 62 | 1012.6 |
| 20260504182026 | 87 | 101 | 1.7 | 8.7 | 0.00 | 0.00 | 0.00 | 62 | 1012.6 |
| 20260504181526 | 87 | 145 | 0.9 | 6.1 | 0.00 | 0.00 | 0.00 | 62 | 1012.7 |
| 20260504181027 | 87 | 85 | 2.6 | 6.1 | 0.00 | 0.00 | 0.00 | 61 | 1012.7 |
| 20260504180524 | 87 | 109 | 0.9 | 6.1 | 0.00 | 0.00 | 0.00 | 64 | 1012.9 |
| 20260504180023 | 86 | 105 | 1.7 | 6.1 | 0.00 | 0.00 | 0.00 | 64 | 1012.9 |
| 20260504175522 | 86 | 92 | 1.7 | 5.2 | 0.00 | 0.00 | 0.00 | 64 | 1012.9 |
| 20260504175021 | 86 | 89 | 1.7 | 5.2 | 0.00 | 0.00 | 0.00 | 65 | 1012.9 |
| 20260504174521 | 86 | 116 | 0.0 | 2.6 | 0.00 | 0.00 | 0.00 | 65 | 1012.9 |
| 20260504174021 | 85 | 115 | 0.0 | 2.6 | 0.00 | 0.00 | 0.00 | 65 | 1013.1 |
| 20260504173521 | 86 | 92 | 0.0 | 1.7 | 0.00 | 0.00 | 0.00 | 65 | 1013.2 |
| 20260504173019 | 85 | 94 | 0.0 | 2.6 | 0.00 | 0.00 | 0.00 | 67 | 1013.3 |
| 20260504172522 | 85 | 94 | 0.0 | 6.1 | 0.00 | 0.00 | 0.00 | 68 | 1013.3 |
| 20260504172018 | 84 | 90 | 1.7 | 6.1 | 0.00 | 0.00 | 0.00 | 67 | 1013.4 |
| 20260504171518 | 84 | 91 | 0.9 | 2.6 | 0.00 | 0.00 | 0.00 | 68 | 1013.6 |
| 20260504171019 | 83 | 91 | 0.0 | 2.6 | 0.00 | 0.00 | 0.00 | 69 | 1013.6 |
| 20260504170517 | 84 | 91 | 0.0 | 5.2 | 0.00 | 0.00 | 0.00 | 68 | 1013.7 |
| 20260504151004 | 80 | 103 | 0.0 | 3.5 | 0.00 | 0.00 | 0.00 | 73 | 1014.6 |
| 20260504150506 | 80 | 103 | 0.0 | 3.5 | 0.00 | 0.00 | 0.00 | 73 | 1014.6 |
| 20260504141053 | 77 | 78 | 0.0 | 1.7 | 0.00 | 0.00 | 0.00 | 77 | 1014.3 |
| 20260504140553 | 77 | 76 | 0.0 | 1.7 | 0.00 | 0.00 | 0.00 | 77 | 1014.2 |
| 20260504130544 | 74 | 74 | 0.0 | 1.7 | 0.00 | 0.00 | 0.00 | 81 | 1014.0 |
| 20260504110534 | 69 | 110 | 0.0 | 0.9 | 0.00 | 0.00 | 0.00 | 89 | 1012.9 |
| 20260504100529 | 68 | 111 | 0.0 | 0.0 | 0.00 | 0.00 | 0.00 | 90 | 1012.3 |
| 20260504081535 | 70 | 111 | 0.0 | 2.6 | 0.00 | 0.00 | 0.00 | 88 | 1012.6 |
| 20260504081017 | 70 | 111 | 0.0 | 2.6 | 0.00 | 0.00 | 0.00 | 88 | 1012.7 |
| 20260504080516 | 71 | 111 | 0.0 | 0.0 | 0.00 | 0.00 | 0.00 | 88 | 1012.9 |
| 20260504050507 | 71 | 111 | 0.0 | 0.0 | 0.00 | 0.00 | 0.00 | 89 | 1013.6 |
| 20260504050014 | 71 | 111 | 0.0 | 0.0 | 0.00 | 0.00 | 0.00 | 89 | 1014.2 |
| 20260504045506 | 71 | 111 | 0.0 | 0.9 | 0.00 | 0.00 | 0.00 | 89 | 1014.3 |
| 20260504045006 | 71 | 111 | 0.0 | 0.9 | 0.00 | 0.00 | 0.00 | 89 | 1014.3 |
| 20260504044506 | 71 | 111 | 0.0 | 2.6 | 0.00 | 0.00 | 0.00 | 89 | 1014.3 |
| 20260504044007 | 71 | 112 | 0.0 | 2.6 | 0.00 | 0.00 | 0.00 | 89 | 1014.2 |
| 20260504043508 | 71 | 112 | 0.0 | 0.0 | 0.00 | 0.00 | 0.00 | 89 | 1014.3 |
| 20260504043005 | 71 | 112 | 0.0 | 0.0 | 0.00 | 0.00 | 0.00 | 89 | 1014.2 |
| 20260504042504 | 71 | 112 | 0.0 | 0.0 | 0.00 | 0.00 | 0.00 | 88 | 1014.1 |
| 20260504042007 | 71 | 112 | 0.0 | 0.0 | 0.00 | 0.00 | 0.00 | 88 | 1013.9 |
| 20260504041505 | 70 | 112 | 0.0 | 1.7 | 0.00 | 0.00 | 0.00 | 88 | 1014.0 |
| 20260504041003 | 70 | 112 | 0.0 | 1.7 | 0.00 | 0.00 | 0.00 | 88 | 1014.0 |
| 20260504040503 | 70 | 112 | 0.0 | 1.7 | 0.00 | 0.00 | 0.00 | 88 | 1014.1 |
| 20260504040100 | 70 | 111 | 0.0 | 0.9 | 0.00 | 0.00 | 0.00 | 88 | 1014.1 |
| 20260504040003 | 70 | 111 | 0.0 | 0.9 | 0.00 | 0.00 | 0.00 | 88 | 1014.1 |
| 20260504035600 | 70 | 111 | 0.0 | 0.9 | 0.00 | 0.03 | 0.00 | 88 | 1014.1 |
| 20260504035100 | 70 | 111 | 0.0 | 0.9 | 0.00 | 0.03 | 0.00 | 88 | 1014.2 |
| 20260504034600 | 70 | 111 | 0.0 | 1.7 | 0.00 | 0.03 | 0.00 | 88 | 1014.3 |
| 20260504034059 | 70 | 111 | 0.0 | 1.7 | 0.00 | 0.03 | 0.00 | 89 | 1014.2 |
| 20260504033559 | 70 | 111 | 0.0 | 0.0 | 0.00 | 0.03 | 0.00 | 89 | 1014.2 |
| 20260504033103 | 70 | 111 | 0.0 | 0.0 | 0.00 | 0.03 | 0.00 | 89 | 1014.5 |
| 20260504032600 | 70 | 111 | 0.0 | 0.9 | 0.00 | 0.03 | 0.00 | 89 | 1014.4 |
| 20260504032100 | 70 | 111 | 0.0 | 0.9 | 0.00 | 0.03 | 0.00 | 89 | 1014.2 |
| 20260504031603 | 70 | 111 | 0.0 | 3.5 | 0.00 | 0.03 | 0.00 | 88 | 1014.1 |
| 20260504031058 | 70 | 109 | 0.0 | 3.5 | 0.00 | 0.03 | 0.00 | 88 | 1014.0 |
| 20260504030559 | 70 | 110 | 0.0 | 0.0 | 0.00 | 0.03 | 0.00 | 88 | 1014.1 |
| 20260504030058 | 71 | 110 | 0.0 | 0.9 | 0.00 | 0.03 | 0.00 | 88 | 1014.4 |
| 20260504025558 | 70 | 110 | 0.0 | 0.9 | 0.00 | 0.22 | 0.00 | 88 | 1014.8 |
| 20260504025058 | 70 | 110 | 0.0 | 0.0 | 0.00 | 0.22 | 0.00 | 88 | 1014.9 |
| 20260504024558 | 70 | 110 | 0.0 | 0.0 | 0.00 | 0.22 | 0.00 | 89 | 1014.8 |
| 20260504024059 | 70 | 110 | 0.0 | 0.9 | 0.00 | 0.22 | 0.00 | 89 | 1014.8 |
| 20260504023557 | 70 | 110 | 0.0 | 0.9 | 0.00 | 0.22 | 0.00 | 89 | 1014.9 |
| 20260504023057 | 70 | 110 | 0.0 | 1.7 | 0.00 | 0.22 | 0.00 | 89 | 1015.0 |
| 20260504022558 | 70 | 110 | 0.0 | 0.9 | 0.00 | 0.22 | 0.00 | 89 | 1014.9 |
| 20260504022057 | 71 | 110 | 0.0 | 0.9 | 0.00 | 0.22 | 0.00 | 89 | 1014.7 |
| 20260504021558 | 71 | 110 | 0.0 | 0.0 | 0.00 | 0.22 | 0.00 | 88 | 1014.7 |
| 20260504021100 | 71 | 110 | 0.0 | 0.0 | 0.00 | 0.22 | 0.00 | 88 | 1014.6 |
| 20260504020557 | 71 | 110 | 0.0 | 0.0 | 0.00 | 0.22 | 0.00 | 88 | 1014.5 |
| 20260504020132 | 71 | 110 | 0.0 | 0.0 | 0.00 | 0.22 | 0.00 | 88 | 1014.2 |
| 20260504015556 | 71 | 110 | 0.0 | 0.0 | 0.00 | 0.24 | 0.00 | 87 | 1014.2 |
| 20260504015056 | 71 | 110 | 0.0 | 1.7 | 0.00 | 0.24 | 0.00 | 87 | 1014.2 |
| 20260504014604 | 71 | 110 | 0.0 | 1.7 | 0.00 | 0.24 | 0.00 | 87 | 1014.4 |
| 20260504014055 | 71 | 110 | 0.0 | 0.9 | 0.00 | 0.24 | 0.00 | 86 | 1014.4 |
| 20260504013556 | 72 | 111 | 0.0 | 0.0 | 0.00 | 0.24 | 0.00 | 86 | 1014.3 |
| 20260504013116 | 72 | 111 | 0.0 | 0.0 | 0.00 | 0.24 | 0.00 | 85 | 1014.4 |
| 20260504012556 | 72 | 111 | 0.0 | 0.0 | 0.00 | 0.24 | 0.00 | 85 | 1014.4 |
| 20260504012059 | 72 | 111 | 0.0 | 0.0 | 0.00 | 0.24 | 0.00 | 84 | 1014.4 |
| 20260504011555 | 72 | 111 | 0.0 | 0.0 | 0.00 | 0.24 | 0.00 | 84 | 1014.3 |
| 20260504011055 | 72 | 111 | 0.0 | 1.7 | 0.00 | 0.24 | 0.00 | 83 | 1014.2 |
| 20260504010555 | 72 | 111 | 0.0 | 2.6 | 0.00 | 0.24 | 0.00 | 83 | 1014.0 |
| 20260504010055 | 72 | 111 | 0.0 | 2.6 | 0.00 | 0.24 | 0.00 | 83 | 1013.9 |
| 20260504005556 | 72 | 111 | 0.0 | 2.6 | 0.00 | 0.24 | 0.00 | 83 | 1013.9 |
| 20260504005056 | 72 | 178 | 0.0 | 5.2 | 0.00 | 0.24 | 0.00 | 83 | 1013.8 |
| 20260504004628 | 72 | 182 | 0.9 | 5.2 | 0.00 | 0.24 | 0.00 | 84 | 1013.7 |
| 20260504004054 | 72 | 140 | 0.0 | 4.3 | 0.00 | 0.24 | 0.00 | 84 | 1013.6 |
| 20260504003554 | 72 | 140 | 0.0 | 4.3 | 0.00 | 0.24 | 0.00 | 84 | 1013.6 |
| 20260504003100 | 72 | 109 | 0.0 | 2.6 | 0.00 | 0.24 | 0.00 | 85 | 1013.7 |
| 20260504002555 | 72 | 109 | 0.0 | 2.6 | 0.00 | 0.24 | 0.00 | 85 | 1013.7 |
| 20260504002054 | 72 | 109 | 0.0 | 0.0 | 0.00 | 0.24 | 0.00 | 85 | 1013.6 |
| 20260504001620 | 72 | 109 | 0.0 | 1.7 | 0.00 | 0.24 | 0.00 | 85 | 1013.7 |
| 20260504001054 | 72 | 109 | 0.0 | 1.7 | 0.00 | 0.24 | 0.00 | 85 | 1013.6 |
| 20260504000553 | 72 | 109 | 0.0 | 1.7 | 0.00 | 0.24 | 0.00 | 85 | 1013.6 |
| 20260504000104 | 72 | 109 | 0.0 | 1.7 | 0.00 | 0.24 | 0.00 | 85 | 1013.6 |
| 20260503235556 | 72 | 109 | 0.0 | 1.7 | 0.00 | 0.28 | 0.00 | 85 | 1013.5 |
| 20260503235054 | 73 | 109 | 0.0 | 0.0 | 0.00 | 0.28 | 0.00 | 84 | 1013.5 |
| 20260503234600 | 72 | 109 | 0.0 | 1.7 | 0.00 | 0.28 | 0.00 | 84 | 1013.3 |
| 20260503234053 | 73 | 109 | 0.0 | 1.7 | 0.00 | 0.28 | 0.00 | 83 | 1013.2 |
| 20260503233553 | 73 | 109 | 0.0 | 1.7 | 0.00 | 0.28 | 0.00 | 83 | 1013.2 |
| 20260503233057 | 73 | 109 | 0.0 | 1.7 | 0.00 | 0.28 | 0.00 | 83 | 1013.1 |
| 20260503232552 | 73 | 109 | 0.0 | 0.9 | 0.00 | 0.28 | 0.00 | 83 | 1013.2 |
| 20260503232052 | 73 | 109 | 0.0 | 1.7 | 0.00 | 0.28 | 0.00 | 83 | 1013.2 |
| 20260503231552 | 73 | 111 | 0.0 | 2.6 | 0.00 | 0.28 | 0.00 | 82 | 1013.1 |
| 20260503231052 | 73 | 110 | 0.0 | 2.6 | 0.00 | 0.28 | 0.00 | 82 | 1013.1 |
| 20260503230555 | 73 | 111 | 0.0 | 2.6 | 0.00 | 0.28 | 0.00 | 82 | 1013.0 |
| 20260503230109 | 73 | 108 | 0.0 | 2.6 | 0.00 | 0.28 | 0.00 | 82 | 1013.0 |
| 20260503225551 | 73 | 108 | 0.0 | 2.6 | 0.00 | 0.36 | 0.00 | 82 | 1013.1 |
| 20260503225051 | 73 | 108 | 0.0 | 0.9 | 0.00 | 0.36 | 0.00 | 84 | 1013.0 |
| 20260503224556 | 73 | 108 | 0.0 | 1.7 | 0.00 | 0.36 | 0.00 | 84 | 1013.0 |
| 20260503224052 | 74 | 108 | 0.0 | 1.7 | 0.00 | 0.36 | 0.00 | 84 | 1013.0 |
| 20260503223551 | 74 | 108 | 0.0 | 1.7 | 0.00 | 0.36 | 0.00 | 84 | 1012.9 |
| 20260503223051 | 74 | 108 | 0.0 | 1.7 | 0.00 | 0.36 | 0.00 | 84 | 1013.0 |
| 20260503222552 | 74 | 108 | 0.0 | 1.7 | 0.00 | 0.36 | 0.00 | 83 | 1012.9 |
| 20260503222050 | 74 | 108 | 0.0 | 1.7 | 0.00 | 0.36 | 0.00 | 83 | 1012.8 |
| 20260503221601 | 74 | 108 | 0.0 | 1.7 | 0.00 | 0.36 | 0.00 | 83 | 1012.8 |
| 20260503221051 | 74 | 108 | 0.0 | 1.7 | 0.00 | 0.36 | 0.00 | 83 | 1012.8 |
| 20260503220551 | 74 | 108 | 0.0 | 1.7 | 0.00 | 0.36 | 0.00 | 83 | 1012.8 |
| 20260503220051 | 74 | 108 | 0.0 | 2.6 | 0.00 | 0.36 | 0.00 | 83 | 1012.7 |
| 20260503215550 | 74 | 108 | 0.0 | 2.6 | 0.00 | 0.36 | 0.00 | 83 | 1012.7 |
| 20260503215049 | 74 | 108 | 0.0 | 0.9 | 0.00 | 0.36 | 0.00 | 83 | 1012.7 |
| 20260503214557 | 74 | 108 | 0.0 | 0.9 | 0.00 | 0.36 | 0.00 | 83 | 1012.9 |
| 20260503214049 | 75 | 108 | 0.0 | 0.0 | 0.00 | 0.36 | 0.00 | 83 | 1012.9 |
| 20260503213551 | 75 | 108 | 0.0 | 1.7 | 0.00 | 0.36 | 0.00 | 83 | 1013.1 |
| 20260503213049 | 75 | 108 | 0.0 | 2.6 | 0.00 | 0.36 | 0.00 | 82 | 1013.1 |
| 20260503212550 | 75 | 108 | 0.0 | 2.6 | 0.00 | 0.36 | 0.00 | 82 | 1013.1 |
| 20260503212048 | 75 | 124 | 0.0 | 2.6 | 0.00 | 0.36 | 0.00 | 83 | 1013.2 |
| 20260503211549 | 75 | 124 | 0.0 | 2.6 | 0.00 | 0.36 | 0.00 | 83 | 1013.2 |
| 20260503211049 | 75 | 123 | 0.0 | 2.6 | 0.00 | 0.36 | 0.00 | 83 | 1013.1 |
| 20260503210549 | 74 | 119 | 0.0 | 2.6 | 0.00 | 0.36 | 0.00 | 84 | 1013.1 |
| 20260503210048 | 74 | 119 | 0.0 | 0.0 | 0.00 | 0.36 | 0.00 | 83 | 1013.3 |
| 20260503205548 | 74 | 119 | 0.0 | 1.7 | 0.00 | 0.36 | 0.00 | 83 | 1013.4 |
| 20260503205048 | 74 | 119 | 0.0 | 1.7 | 0.00 | 0.36 | 0.00 | 83 | 1013.4 |
| 20260503204550 | 74 | 119 | 0.0 | 2.6 | 0.00 | 0.36 | 0.00 | 83 | 1013.5 |
| 20260503204047 | 75 | 119 | 0.0 | 2.6 | 0.00 | 0.36 | 0.00 | 82 | 1013.5 |
| 20260503203548 | 75 | 119 | 0.0 | 2.6 | 0.00 | 0.36 | 0.00 | 82 | 1013.5 |
| 20260503203103 | 75 | 120 | 0.0 | 1.7 | 0.00 | 0.36 | 0.00 | 82 | 1013.5 |